Weather History for Cozumel, Mexico

Change the Weather History Date:

Wednesday, November 14, 2012

  Actual Average Record
Temperature  
Mean Temperature 74 °F -  
Max Temperature 80 °F 83 °F 89 °F (1997)
Min Temperature 68 °F 73 °F 66 °F (2010)
Cooling Degree Days 9    
Growing Degree Days 24 (Base 50)    
Moisture  
Dew Point 67 °F    
Average Humidity 80    
Maximum Humidity 100    
Minimum Humidity 65    
Precipitation  
Precipitation 2.35 in - - ()
Sea Level Pressure  
Sea Level Pressure 30.04 in    
Wind  
Wind Speed 6 mph ()    
Max Wind Speed 14 mph    
Max Gust Speed -    
Visibility 8.0 miles    
Events Rain    
Averages and records for this station are not official NWS values.
T = Trace of Precipitation, MM = Missing Value Source: Averaged Metar Reports

Daily Weather History Graph

Daily Weather History Graph

Search for Another Location

Airport:

Trip Planner

Search our weather history database for the weather conditions in past years. The results will help you decide how hot, cold, wet, or windy it might be!

Date:

Astronomy

Nov. 14, 2012 Rise Set
Actual Time 5:57 AM CST 5:07 PM CST
Civil Twilight 5:33 AM CST 5:30 PM CST
Nautical Twilight 5:07 AM CST 5:57 PM CST
Astronomical Twilight 4:40 AM CST 6:23 PM CST
Moon 6:39 AM CST (11/14) 6:02 PM CST (11/14)
Length of Visible Light 11h 56m
Length of Day
11h 10m
New Moon, 1% of the Moon is Illuminated
Nov 14
New Moon
Nov 20
First Quarter
Nov 28
Full
Dec 6
Last Quarter
Dec 13
New

Hourly Weather History & Observations

Time (CST) Temp. Heat Index Dew Point Humidity Pressure Visibility Wind Dir Wind Speed Gust Speed Precip Events Conditions
12:48 AM 71.6 °F - 68.0 °F 88% 30.02 in 7.0 mi NE 3.5 mph - N/A   Scattered Clouds
1:40 AM 71.6 °F - 68.0 °F 88% 30.00 in 7.0 mi Calm Calm - N/A   Scattered Clouds
2:44 AM 69.8 °F - 66.2 °F 88% 30.03 in 7.0 mi NNE 3.5 mph - N/A   Scattered Clouds
3:42 AM 71.6 °F - 69.8 °F 94% 30.00 in 7.0 mi ENE 3.5 mph - N/A   Scattered Clouds
4:49 AM 68.0 °F - 68.0 °F 100% 30.01 in 7.0 mi NNW 4.6 mph - N/A   Scattered Clouds
5:53 AM 71.6 °F - 69.8 °F 94% 29.99 in 7.0 mi North 6.9 mph - N/A   Scattered Clouds
6:48 AM 71.6 °F - 69.8 °F 94% 30.04 in 8.0 mi NNE 3.5 mph - N/A   Scattered Clouds
7:41 AM 75.2 °F - 69.8 °F 83% 30.07 in 8.0 mi North 9.2 mph - N/A   Scattered Clouds
8:51 AM 71.6 °F - 68.0 °F 88% 30.12 in 3.0 mi North 13.8 mph - N/A Rain Rain
9:46 AM 77.0 °F - 71.6 °F 83% 30.09 in 8.0 mi ENE 9.2 mph - N/A   Mostly Cloudy
10:51 AM 78.8 °F - 68.0 °F 69% 30.07 in 10.0 mi ENE 13.8 mph - N/A   Scattered Clouds
11:51 AM 80.6 °F 83.2 °F 68.0 °F 65% 30.02 in 10.0 mi ENE 13.8 mph - N/A   Scattered Clouds
12:44 PM 80.6 °F 83.2 °F 68.0 °F 65% 30.03 in 10.0 mi ENE 13.8 mph - N/A   Scattered Clouds
1:48 PM 80.6 °F 83.2 °F 68.0 °F 65% 30.01 in 10.0 mi NE 13.8 mph - N/A   Scattered Clouds
2:45 PM 78.8 °F - 66.2 °F 65% 30.04 in 10.0 mi NE 8.1 mph - N/A   Mostly Cloudy
4:04 PM 77.0 °F - 66.2 °F 69% 30.02 in 10.0 mi ENE 10.4 mph - N/A   Mostly Cloudy
4:45 PM 75.2 °F - 66.2 °F 73% 30.02 in 10.0 mi ENE 6.9 mph - N/A   Mostly Cloudy
5:48 PM 73.4 °F - 66.2 °F 78% 30.00 in 8.0 mi ENE 5.8 mph - N/A   Mostly Cloudy
6:48 PM 73.4 °F - 66.2 °F 78% 30.05 in 8.0 mi NE 5.8 mph - N/A   Scattered Clouds
7:45 PM 73.4 °F - 66.2 °F 78% 30.07 in 8.0 mi NE 6.9 mph - N/A   Scattered Clouds
8:53 PM 73.4 °F - 68.0 °F 83% 30.11 in 7.0 mi NE 4.6 mph - N/A   Scattered Clouds
9:43 PM 73.4 °F - 66.2 °F 78% 30.08 in 7.0 mi NE 5.8 mph - N/A   Scattered Clouds
10:44 PM 73.4 °F - 64.4 °F 73% 30.07 in 7.0 mi NE 8.1 mph - N/A   Partly Cloudy
11:50 PM 73.4 °F - 62.6 °F 69% 30.02 in 7.0 mi NE 5.8 mph - N/A   Partly Cloudy